This is the latest recevied weather packets stored in our database for station/object DL4SAV. If no packets are shown the sender has not sent any weather packets the latest 10 day(s).
| Time | Temp. | Humidity | Pressure | Rain* | Wind** | Luminosity | Snow |
|---|---|---|---|---|---|---|---|
| 1788353096 | 25.56° C | 40% | 1020.3 hPa | 0 mm | - | - | - |
| 1788352796 | 25.56° C | 41% | 1020.3 hPa | 0 mm | - | - | - |
| 1788352496 | 25.56° C | 40% | 1020.5 hPa | 0 mm | - | - | - |
| 1788352196 | 25.56° C | 41% | 1020.3 hPa | 0 mm | - | - | - |
| 1788351895 | 25° C | 43% | 1020.3 hPa | 0 mm | - | - | - |
| 1788351595 | 25° C | 42% | 1020.4 hPa | 0 mm | - | - | - |
| 1788351295 | 25.56° C | 41% | 1020.4 hPa | 0 mm | - | - | - |
| 1788350994 | 25.56° C | 42% | 1020.3 hPa | 0 mm | - | - | - |
| 1788350694 | 25.56° C | 43% | 1020.5 hPa | 0 mm | - | - | - |
| 1788350394 | 25° C | 44% | 1020.5 hPa | 0 mm | - | - | - |
| 1788350093 | 25° C | 45% | 1020.6 hPa | 0 mm | - | - | - |
| 1788349793 | 24.44° C | 45% | 1020.6 hPa | 0 mm | - | - | - |
| 1788349493 | 23.89° C | 46% | 1020.6 hPa | 0 mm | - | - | - |
| 1788349193 | 23.89° C | 46% | 1020.6 hPa | 0 mm | - | - | - |
| 1788348892 | 23.89° C | 45% | 1020.7 hPa | 0 mm | - | - | - |
| 1788348592 | 23.89° C | 45% | 1020.7 hPa | 0 mm | - | - | - |
| 1788348292 | 23.89° C | 48% | 1020.8 hPa | 0 mm | - | - | - |
| 1788347991 | 23.33° C | 48% | 1020.8 hPa | 0 mm | - | - | - |
| 1788347691 | 23.33° C | 49% | 1020.8 hPa | 0 mm | - | - | - |
| 1788347391 | 22.78° C | 50% | 1020.9 hPa | 0 mm | - | - | - |
| 1788347091 | 22.78° C | 51% | 1020.9 hPa | 0 mm | - | - | - |
| 1788346790 | 22.78° C | 50% | 1021 hPa | 0 mm | - | - | - |
| 1788346490 | 22.78° C | 50% | 1021.1 hPa | 0 mm | - | - | - |
| 1788346190 | 23.33° C | 51% | 1021 hPa | 0 mm | - | - | - |
| 1788345889 | 23.33° C | 51% | 1021 hPa | 0 mm | - | - | - |
* Rain latest hour (hover to see other rain measurements)
** Current wind speed in m/s (hover to see current wind gust speed)